Middle School District Meet

December 09, 2023


Results By Race Management Systems, Inc.

Overall Finish List - Girls

7th Grade

O'All Place Score Bib No Name Team Time Pace
1 1 163 Monze Moncayo Morris 12:42.6 6:21/M
2 2 44 Lilly Zuniga Cathy Middle School 13:36.0 6:48/M
3 3 338 Olivia Acosta Sharyland North 13:43.6 6:52/M
4 4 164 Brianna Rodriguez Morris 13:57.0 6:59/M
5 5 169 Bianca Herrera Morris 13:58.1 6:59/M
6 6 279 Julie Lopez PSJA Austin 14:00.8 7:00/M
7 7 170 Kara Villarreal Morris 14:01.5 7:01/M
8 8 12 Camila Gomez BL Gray 14:01.6 7:01/M
9 9 343 Maria Granados Sharyland North 14:03.7 7:02/M
10 10 165 Natalie Karam Morris 14:22.6 7:11/M
11 11 280 Scarlet Hernandez PSJA Austin 14:28.4 7:14/M
12 12 404 Allison Tomaselli Zavala 14:31.8 7:16/M
13 13 47 Sharlenee De Leon Cathy Middle School 14:32.5 7:16/M
14 14 171 Palacios Faith Morris 14:41.9 7:21/M
15 15 353 Taylor Ramirez Sharyland North 14:43.1 7:22/M
16 16 344 Valeria Guerrero Sharyland North 14:49.7 7:25/M
17 17 339 Ashley Cantu Sharyland North 14:51.4 7:26/M
18 18 178 Addie Bonura Morris 14:54.0 7:27/M
19 19 11 Nicolette Ojeda BL Gray 15:01.9 7:31/M
20 (> 7) 194 Hannah Braden Morris 15:02.3 7:31/M
21 20 349 Camila Lopez Sharyland North 15:08.3 7:34/M
22 21 400 Dominique Delgado Zavala 15:09.6 7:35/M
23 22 13 Danhya Castillo BL Gray 15:17.1 7:39/M
24 (> 7) 177 Aleigha Reyes Morris 15:17.2 7:39/M
25 23 342 Samantha Fonseca Sharyland North 15:24.1 7:42/M
26 (> 7) 172 Lexie Admire Morris 15:24.3 7:42/M
27 24 117 Nalani Castillo Liberty 15:24.9 7:42/M
28 25 46 Natalya Padilla Cathy Middle School 15:30.3 7:45/M
29 (> 7) 346 Sofia Hernandez Sharyland North 15:38.1 7:49/M
30 26 401 Layla Hernandez Zavala 15:40.1 7:50/M
31 27 282 Madisen Flores PSJA Austin 15:50.6 7:55/M
32 28 286 Angie Castillo PSJA Austin 15:59.9 8:00/M
33 29 48 Itzell Gandara Cathy Middle School 16:01.0 8:01/M
34 (> 7) 354 Sofia Reyes Sharyland North 16:22.6 8:11/M
35 30 289 Arianna Vega PSJA Austin 16:23.4 8:12/M
36 (> 7) 350 Fernanda Marez Sharyland North 16:25.1 8:13/M
37 (> 7) 357 Katherine Vela Sharyland North 16:26.0 8:13/M
38 31 399 Mya De La Rosa Zavala 16:26.1 8:13/M
39 32 14 Alisson Dimas BL Gray 16:28.8 8:14/M
40 (> 7) 345 Khloey Gutierrez Sharyland North 16:35.5 8:18/M
41 33 283 Shelby Martinez PSJA Austin 16:50.7 8:25/M
42 34 111 Mallorie Vargas Liberty 16:53.5 8:27/M
43 (> 7) 355 Isabella Rodriguez Sharyland North 16:55.5 8:28/M
44 35 84 Yadira Cantu Cesar Chavez 16:58.3 8:29/M
45 (> 7) 347 Shelby Kaltenbach Sharyland North 17:10.0 8:35/M
46 36 284 Danyell Bermea PSJA Austin 17:11.7 8:36/M
47 (> 7) 173 Scarlett Swanson Morris 17:14.9 8:37/M
48 (> 7) 356 Tatiana Tamez Sharyland North 17:16.2 8:38/M
49 (> 7) 179 Cadence Arenas Morris 17:16.2 8:38/M
50 37 87 Keira Cantu Cesar Chavez 17:22.0 8:41/M
51 (> 7) 187 Mackenzie Cantu Morris 17:22.5 8:41/M
52 38 82 Brianna hernandez Cesar Chavez 17:24.5 8:42/M
53 (> 7) 341 Zoe Chico Sharyland North 17:26.0 8:43/M
54 (> 7) 174 Penelope Lopez Morris 17:27.7 8:44/M
55 39 83 Mariana Gutierrez Cesar Chavez 17:35.9 8:48/M
56 (> 7) 351 Jalynn Mascorro Sharyland North 17:41.1 8:51/M
57 40 119 Demi Montes Liberty 17:46.2 8:53/M
58 (> 7) 348 Leah Lopez Sharyland North 17:49.2 8:55/M
59 41 49 Krislynn Guzman Cathy Middle School 17:50.2 8:55/M
60 42 10 Renata Cervantes BL Gray 17:54.7 8:57/M
61 (> 7) 340 Josselyne Cantu Sharyland North 18:01.5 9:01/M
62 (> 7) 189 Natalie Yzaguirre Morris 18:05.5 9:03/M
63 (> 7) 181 Alysson Frayre Morris 18:06.4 9:03/M
64 (> 7) 287 Annabella Reyes PSJA Austin 18:09.3 9:05/M
65 (> 7) 184 Dalett Alanis Morris 18:12.1 9:06/M
66 (> 7) 188 Sophia Leal Morris 18:20.0 9:10/M
67 43 131 Jocelyn Sepulveda Liberty 18:36.8 9:18/M
68 (> 7) 285 Giovanna Lucio PSJA Austin 19:05.3 9:33/M
69 44 402 Annabella Lozano Zavala 19:19.2 9:40/M
70 (> 7) 186 Fabiola Macias Morris 19:19.5 9:40/M
71 (> 7) 195 Destiny Cross Morris 19:39.5 9:50/M
72 (> 7) 175 Kaitlyn Tijerina Morris 19:41.1 9:51/M
73 (> 7) 182 Leyla Rodriguez Morris 19:43.9 9:52/M
74 (> 7) 183 Hailey McMillan Morris 19:47.8 9:54/M
75 45 115 Nia Sanchez Liberty 20:18.5 10:09/M
76 46 118 Camila Martinez Liberty 23:22.1 11:41/M
77 47 86 Aime Pichardo Cesar Chavez 23:37.4 11:49/M